Tracking 22455 objects as of 8-Mar-2021
HD Live streaming from Space Station
objects crossing your sky now

RISESAT

Track RISESAT now!
10-day predictions


NORAD ID: 43934
Int'l Code: 2019-003C
Perigee: 493.9 km
Apogee: 518.1 km
Inclination: 97.2 °
Period: 94.6 minutes
Semi major axis: 6877 km
RCS: Unknown
Launch date: January 18, 2019
Source: Japan (JPN)
Launch site: KAGOSHIMA SPACE CENTER UNIVERSITY OF TOKYO (KSCUT)
aabbcc
Your satellite tracking list
Your tracking list is empty




NASA's NSSDC Master Catalog

Two Line Element Set (TLE):
1 43934U 19003C   21067.52550789  .00000666  00000-0  31684-4 0  9997
2 43934  97.1934 112.5597 0017607  29.1330 106.7192 15.22303995118709
Source of the keplerian elements: AFSPC